NAVSTAR 57 (USA 183)    
1 28874U 05038A   19265.37898823 -.00000070  00000-0  00000+0 0  9993
2 28874  56.3963  10.6878 0133832 262.5238 100.6855  2.00575811102491
DELTA 2 R/B(2) [PAM-D]  
1 28876U 05038C   19265.40831662  .00003455  00000-0  29640-3 0  9991
2 28876  39.5201  47.1476 5524764 321.3378   9.8145  4.81575956224399
DELTA 2 DEB             
1 29534U 05038D   19261.42773203  .00000855  00000-0  11575-3 0  9996
2 29534  39.4852 321.1078 5856484 341.6325   4.0370  4.28189740203262